www.pogodaiklimat.ru

Погода и климат >> Архив погоды >> Новая Зеландия >> Квинстаун


ПОГОДА в Квинстауне

  • Прогноз погоды в Квинстауне
  • Монитор погоды в Квинстауне

АРХИВ ПОГОДЫ в Квинстауне

Время (UTC), дата Ветер
(напр.,м/с)
 
Видим.   Явления Облачность Т
(С)
Тd
(С)
f
(%)
Тe
(С)
Тes
(С)
Комфортность P
(гПа)
Po
(гПа)
Тmin
(С)
Tmax
(С)
R
(мм)
R24
(мм)
S
(см)
03 15.03 З 3 20 км н/о +16.6 +7.6 55 +16 +16 1015.8 973.9
06 15.03 ЮЗ 1 10 км н/о +12.6 +11.2 91 +13 +13 1017.7 975.2 3
09 15.03 ЮЗ 1 20 км н/о +12.6 +12.0 96 +12 +12 1018.4 975.9
12 15.03 ЮВ 1 20 км н/о +12.4 +11.4 94 +12 +12 1018.7 976.1 +17.0 2
15 15.03 ЮЗ 1 10 км н/о +12.2 +11.5 95 +13 +13 1018.7 976.1
18 15.03 ЮВ 1 20 км н/о +11.7 +10.8 94 +12 +12 1019.6 976.9
21 15.03 З 2 20 км н/о +13.8 +11.9 88 +14 +14 1021.3 978.8
00 16.03 Ю 4 20 км н/о +16.1 +13.1 82 +15 +15 1022.2 980.0 +11.1 5
03 16.03 З 2 20 км н/о +20.0 +12.3 61 +22 +22 комфорт 1021.4 979.8
06 16.03 Ю 7 20 км н/о +19.0 +11.8 63 +19 +19 1022.5 980.7
09 16.03 ЮВ 3 20 км н/о +15.4 +11.3 77 +15 +15 1026.4 983.9
12 16.03 ЮВ 2 20 км н/о +12.9 +11.1 89 +12 +12 1028.3 985.4 +21.1
15 16.03 СВ 1 500 м н/о +9.0 +8.5 97 +9 +9 1029.2 985.7
18 16.03 СВ 3 2000 м н/о +7.8 +7.6 99 +5 +5 1029.7 986.0
21 16.03 В 1 4000 м н/о +12.0 +11.8 99 +12 +12 1030.0 986.9
00 17.03 З 4 20 км н/о +15.6 +12.7 83 +15 +15 1028.1 985.6 +7.3
03 17.03 З 3 20 км н/о +19.9 +13.5 67 +22 +22 комфорт 1024.7 982.9
06 17.03 ЮЗ 2 20 км н/о +22.1 +12.2 53 +24 +24 комфорт 1023.4 982.0
09 17.03 штиль 0 50 км н/о +17.4 +12.9 75 +17 +17 1025.5 983.4
12 17.03 штиль 0 50 км н/о +14.8 +13.0 89 +14 +14 1026.1 983.6 +22.4
15 17.03 СВ 2 50 км н/о +12.9 +12.0 94 +12 +12 1025.8 983.0
18 17.03 В 2 20 км н/о +11.4 +10.9 97 +10 +10 1025.8 982.8
21 17.03 В 2 20 км н/о +16.5 +13.5 82 +17 +17 1025.7 983.4
00 18.03 З 4 20 км н/о +20.7 +14.5 68 +24 +24 комфорт 1024.0 982.4 +11.1
03 18.03 З 4 20 км н/о +22.6 +13.2 55 +26 +26 жарко 1021.7 980.4
06 18.03 Ю 5 50 км н/о +21.3 +14.7 66 +24 +24 комфорт 1021.5 980.1
09 18.03 ЮВ 2 20 км н/о +19.1 +15.3 79 +21 +21 комфорт 1023.8 982.0
12 18.03 Ю 5 20 км н/о +17.2 +14.9 86 +17 +17 1024.8 982.7 +23.2
15 18.03 Ю 5 20 км н/о +15.9 +14.1 89 +15 +15 1025.2 982.9
18 18.03 С 2 20 км н/о +14.0 +13.4 96 +14 +14 1025.2 982.6
21 18.03 В 1 20 км н/о +17.0 +14.2 84 +18 +18 1025.1 982.9
00 19.03 З 3 20 км н/о +19.9 +15.5 76 +22 +22 комфорт 1023.3 981.6 +13.2
03 19.03 ЮЗ 4 20 км н/о +21.5 +14.6 65 +25 +25 комфорт 1021.2 979.8
06 19.03 Ю 9 20 км н/о +21.9 +14.6 63 +25 +25 комфорт 1021.1 979.8
09 19.03 ЮВ 4 50 км н/о +18.6 +14.5 77 +19 +19 1023.7 981.8
12 19.03 ЮВ 3 20 км н/о +17.2 +14.2 83 +17 +17 1024.9 982.8 +23.6
15 19.03 С 1 20 км н/о +13.9 +13.1 95 +14 +14 1025.2 982.6
18 19.03 СВ 2 20 км н/о +13.4 +13.1 98 +13 +13 1025.8 983.1
21 19.03 СВ 2 20 км н/о +16.4 +14.3 87 +17 +17 1026.3 984.0
00 20.03 З 3 20 км н/о +19.2 +14.8 76 +21 +21 комфорт 1025.0 983.1 +11.9
03 20.03 З 3 20 км н/о +21.5 +14.3 64 +24 +24 комфорт 1022.7 981.2
06 20.03 Ю 6 20 км н/о +21.5 +15.1 67 +25 +25 комфорт 1021.9 980.5
09 20.03 Ю 6 20 км н/о +18.8 +14.7 77 +19 +19 1024.3 982.4
12 20.03 СВ 2 20 км н/о +14.5 +13.0 91 +14 +14 1025.6 983.0 +22.9
15 20.03 СВ 2 10 км н/о +13.0 +12.4 96 +12 +12 1026.0 983.2
18 20.03 СВ 2 20 км н/о +13.0 +12.6 97 +12 +12 1025.9 983.1
21 20.03 В 1 20 км н/о +16.0 +14.1 88 +17 +17 1026.7 984.3
00 21.03 З 3 20 км н/о +19.8 +14.7 72 +22 +22 комфорт 1025.3 983.5 +11.7
03 21.03 ЮЗ 3 20 км н/о +23.6 +12.6 50 +26 +26 жарко 1023.3 982.1
06 21.03 З 3 50 км н/о +20.8 +13.6 63 +24 +24 комфорт 1023.2 981.6
09 21.03 ЮЗ 3 50 км н/о +19.1 +13.8 71 +21 +21 комфорт 1024.7 982.8
12 21.03 СВ 2 50 км н/о +15.4 +13.0 86 +16 +16 1026.0 983.5 +24.1
15 21.03 СВ 2 50 км н/о +13.0 +11.4 90 +12 +12 1026.0 983.2
18 21.03 С 2 20 км н/о +11.8 +11.3 97 +11 +11 1026.2 983.2
21 21.03 СВ 2 20 км н/о +15.8 +12.8 82 +16 +16 1026.5 984.1
00 22.03 ЮЗ 3 20 км н/о +20.6 +12.5 60 +23 +23 комфорт 1024.9 983.2 +10.6

 

Местоположение метеостанции Квинстаун (Новая Зеландия): широта -45.01 долгота 168.73 высота над уровнем моря 358 м.

В архиве по умолчанию представлена погода в Квинстауне за последнюю неделю. Архивные данные за месяц целиком и за предыдущие месяцы, начиная с января 2011 года, Вы можете получить, выбрав интересующий диапазон дат из раскрывающегося списка и нажав кнопку "Ввод!".


*Определитесь, кто Вы:
робот инопланетянин человек

Внимание! Время в таблицах - всемирное. Для получения местного времени необходимо прибавить поправку, которая равна 12 ч.

Смотрите также архив погоды в соседних городах и на ближайших метеорологических станциях:

Погода в Тара Хилс (Новая Зеландия) (106 км)
Погода в Хаасте (Новая Зеландия) (130 км)
Погода на Острове Секретари (Новая Зеландия) (147 км)
Погода в Данидине (Новая Зеландия) (151 км)
Погода в Инверкаргилле (Новая Зеландия) (159 км)
Погода на Маяке Puysegur Point (Новая Зеландия) (208 км)
Погода в Тимару (Новая Зеландия) (213 км)
Погода на Мысе Юго-западный (Новая Зеландия) (269 км)
Погода в Хокитике (Новая Зеландия) (313 км)
Погода в Крайстчерче (Новая Зеландия) (346 км)

Пояснения к столбцам:

Ветер - указаны скорость ветра в м/с - средняя за 10 мин, порывы в срок и между сроками (в фигурных скобках) и направление, откуда дует ветер: С - северный, СВ - северо-восточный, В - восточный, ЮВ - юго-восточный, Ю - южный, ЮЗ - юго-западный, З - западный, СЗ - северо-западный.
Видимость - горизонтальная дальность видимости в метрах или километрах. При видимости от 1 до 10 км при отсутствии осадков обычно наблюдается дымка, при ухудшении видимости до 1 км и менее - туман. В сухую погоду видимость может ухудшаться дымом, пылью или мглою.
Явления - указаны атмосферные явления, наблюдавшиеся в срок или в последний час перед сроком; фигурными скобками обозначены явления, наблюдавшиеся между сроками (за 1-3 часа до срока); квадратными скобками обозначены град или гололедные отложения с указанием их диаметра в мм.
Облачность - указаны через наклонную черту общая и нижняя облачность в баллах и высота нижней границы облаков в метрах; квадратными скобками обозначены формы облаков: Ci - перистые, Cs - перисто-слоистые, Cc - перисто-кучевые, Ac - высококучевые, As - высокослоистые, Sc - слоисто-кучевые, Ns - слоисто-дождевые, Cu - кучевые, Cb - кучево-дождевые. Подробнее классификацию облаков см. в Атласе облаков (PDF).
T - Температура воздуха - температура, измеренная на высоте 2 м над землей.
Td - Температура точки росы - температура, при понижении до которой содержащийся в воздухе водяной пар достигнет насыщения.
f - Относительная влажность воздуха - влажноcть воздуха, измеренная на высоте 2 м над землей.
Te - Эффективная температура - температура, которую ощущает одетый по сезону человек в тени. Характеристика душности погоды. При расчете учитывается влияние влажности воздуха и скорости ветра на теплоощущения человека.
Tes - Эффективная температура на солнце - температура, которую ощущает человек, с поправкой на солнечный нагрев. Характеристика знойности погоды. Зависит от высоты солнца над горизонтом, облачности и скорости ветра. Ночью, в пасмурную погоду, а также при ветре 12 м/с и более поправка равна нулю.
P - Атмосферное давление - приведенное к уровню моря атмосферное давление.
Po - Атмосферное давление - измеренное на уровне метеостанции атмосферное давление.
Tmin - Минимальная температура - минимум температуры воздуха на высоте 2 м над землей.
Tmax - Максимальная температура - максимум температуры воздуха на высоте 2 м над землей.
R - Количество осадков - Количество выпавших осадков за период времени, мм. При наведении курсора мыши на число - период времени, за который выпало указанное количество осадков.
R24 - Количество осадков - Количество выпавших осадков за 24 часа, мм.
S - Снежный покров - Высота снежного покрова, см. При наведении курсора мыши на число - состояние снежного покрова и степень покрытия местности в баллах.